Cloud_Cover
0 0 0 0 0 0 0 0 0 0 0 0 0 0 3 1 0 1 2 3 0 0 0 0 0 0 0 0 64 100 78 84 100 100 100 100 100 100 100 100 100 100 100 100
0 0 0 0 0 0 0 0 0 0 0 0 0 0 4 5 58 5 20 68 94 5 0 0 0 0 0 0 0 9 100 80 100 100 100 100 100 100 100 100 100 100 100 100
0 0 0 0 0 0 0 0 0 0 0 0 0 0 4 48 100 100 88 88 100 69 7 2 0 0 0 0 0 0 8 100 100 100 100 100 100 100 100 100 100 100 100 100
0 0 0 0 0 0 0 0 0 0 0 0 0 4 5 12 16 12 36 37 100 68 26 2 0 0 0 0 0 0 0 33 100 100 100 100 100 100 100 100 100 100 100 100
0 0 0 0 0 0 0 0 0 0 0 0 0 3 1 0 0 4 2 2 0 0 0 0 0 0 0 0 0 0 0 0 95 100 100 100 100 100 100 98 100 100 100 100
0 0 0 0 0 0 4 0 0 0 0 0 0 0 4 0 0 0 1 5 1 0 0 0 0 0 0 0 0 0 0 0 15 100 100 96 100 100 100 100 100 100 100 100
0 0 0 0 0 1 5 1 0 0 0 0 0 3 0 0 0 0 5 5 3 5 4 2 0 0 0 0 0 0 0 0 0 6 100 99 96 100 100 100 100 100 100 100
0 0 0 0 2 0 0 0 0 0 3 0 0 2 0 0 0 5 63 95 97 100 100 46 1 0 0 0 0 0 0 0 0 0 22 100 100 100 100 100 100 100 100 100
0 0 0 0 4 1 0 0 0 0 0 0 2 0 0 0 0 5 63 81 54 95 100 100 92 3 0 0 0 0 0 0 0 0 0 14 100 100 95 100 92 100 100 100
0 0 0 0 1 5 4 0 5 2 0 2 0 0 1 0 0 0 3 3 52 100 100 100 41 5 0 0 0 0 0 2 5 0 0 0 3 100 70 98 100 100 100 100
5 0 0 0 0 1 0 4 5 0 0 1 4 0 0 0 0 0 1 0 21 32 54 70 0 0 0 0 1 0 1 5 2 0 0 0 0 6 97 63 100 100 100 100
5 5 2 0 1 1 0 0 5 5 0 0 2 1 0 0 0 0 0 0 4 0 0 5 5 3 5 5 38 5 5 5 3 0 0 0 5 5 16 26 80 100 100 100
0 5 3 5 0 0 0 0 0 4 5 3 4 1 0 0 0 0 0 0 0 5 63 19 5 5 30 34 54 7 5 5 3 0 0 5 5 5 5 5 62 90 100 100
5 4 5 0 0 0 0 0 1 5 5 5 3 2 2 0 0 1 0 0 1 30 5 0 5 5 5 99 100 38 5 5 2 0 5 5 5 5 5 44 96 100 100 100
5 5 5 3 0 0 0 0 4 5 5 5 5 0 5 4 1 0 0 0 22 81 1 2 5 5 17 94 53 5 5 5 0 4 1 5 5 5 5 50 100 100 100 100
5 50 5 26 1 4 5 3 5 5 6 5 5 5 5 5 5 1 0 1 5 5 5 5 5 5 5 5 4 5 5 0 4 5 5 5 52 5 61 91 100 100 100 100
7 98 18 6 5 1 0 6 5 7 18 5 4 3 5 5 0 0 0 1 5 4 5 57 24 5 5 0 4 3 1 3 3 5 37 5 5 9 96 98 81 100 100 100
5 87 71 10 8 2 1 2 8 5 5 31 5 5 5 5 4 0 0 0 2 0 5 5 4 1 0 0 5 0 0 1 5 5 5 5 5 9 100 97 40 91 100 100
90 5 44 74 7 5 1 0 4 5 61 100 29 5 5 5 5 0 0 0 0 0 2 0 0 0 0 1 3 0 0 4 5 1 5 5 5 5 88 100 47 93 100 90
100 44 6 18 88 5 0 0 4 5 5 100 100 8 5 5 5 4 0 0 0 0 0 0 0 0 5 1 0 0 0 5 5 0 5 5 5 14 25 88 54 35 74 62
74 56 5 5 39 10 5 3 0 5 6 35 100 87 18 27 47 5 2 5 3 2 0 0 0 0 0 0 0 0 0 5 5 0 5 5 5 87 58 82 33 41 17 8
100 100 49 5 6 14 5 5 5 8 79 40 100 71 60 47 15 5 48 12 5 5 1 1 0 0 0 0 1 4 2 5 0 0 5 5 5 5 87 67 14 54 72 58
100 100 100 88 22 79 12 7 38 96 5 11 100 16 65 100 94 64 93 100 95 30 5 5 4 0 0 0 0 0 0 0 0 6 19 5 16 5 6 10 5 5 5 5
100 100 100 99 8 79 5 20 8 99 51 24 67 39 100 100 100 100 100 100 100 92 75 10 5 5 2 2 0 0 0 0 0 5 5 5 5 5 5 5 5 5 5 5
96 74 63 18 89 46 5 5 84 100 50 18 100 100 100 100 100 100 100 100 36 12 13 67 80 7 5 5 1 4 0 0 0 5 5 5 6 36 15 13 5 5 5 5
100 99 21 32 100 62 5 5 97 100 100 71 31 88 100 100 100 100 100 100 100 71 20 33 67 35 5 5 5 4 0 0 0 0 5 5 5 5 5 5 5 5 5 5